Wind_Speed
33 35 38 41 39 40 39 39 35 34 37 38 37 38 40 46 50 52 53 55 57 54 52 53 54 54 56 59 58 57 57 60 61 60 61 60 60 64 67 71 76 83 88 92
36 37 38 37 40 39 45 37 32 34 35 37 36 38 41 46 49 51 52 47 44 45 46 46 47 49 52 53 50 50 52 54 56 56 56 53 54 58 62 64 65 69 80 87
38 38 38 38 39 41 40 30 31 35 33 34 37 39 39 46 49 44 41 39 39 44 44 46 45 43 47 46 44 44 45 46 47 48 52 56 57 57 58 59 62 66 66 70
38 37 36 38 39 32 28 27 32 33 32 33 35 42 41 45 41 37 33 35 40 39 42 36 40 44 45 42 43 42 40 39 40 44 47 47 48 51 53 52 55 62 64 62
40 40 35 32 29 29 24 27 30 29 29 32 35 40 39 36 32 29 29 32 37 38 33 38 40 42 42 42 42 41 40 41 44 43 42 42 44 44 42 44 53 56 56 60
39 40 36 28 24 26 26 27 28 26 29 31 34 38 35 30 25 24 26 33 36 36 36 38 39 40 42 43 41 41 42 43 43 41 37 38 37 36 32 35 38 46 45 50
32 31 30 31 25 31 27 26 25 26 28 31 32 35 29 25 22 21 24 30 34 38 41 42 41 39 40 41 39 40 41 42 37 34 32 30 30 32 29 25 26 34 37 39
32 29 28 30 29 27 24 20 21 26 28 31 29 28 25 21 20 21 23 29 35 41 42 43 39 37 36 39 38 37 37 38 29 25 24 22 23 26 26 21 21 34 22 43
27 29 31 27 26 18 18 17 20 24 26 29 26 23 19 17 17 18 24 29 36 40 43 44 36 35 31 35 34 33 32 34 28 17 16 16 16 19 15 16 23 45 31 35
24 25 24 26 16 17 14 15 18 20 27 29 22 19 16 15 15 20 25 29 36 38 42 41 35 29 28 30 29 27 26 29 31 21 6 8 10 11 12 12 21 38 39 33
22 22 18 17 14 16 11 14 17 19 21 22 22 18 14 15 16 22 27 27 33 32 36 36 30 24 24 25 24 22 22 22 22 23 16 6 5 7 8 8 17 34 37 38
21 19 13 12 17 12 11 14 15 18 15 17 18 17 12 15 16 22 26 28 28 29 29 32 26 20 22 22 20 20 21 20 17 17 16 11 5 5 7 9 17 28 34 40
18 16 14 14 16 9 11 12 14 14 12 15 18 15 14 14 17 19 22 22 24 24 23 26 31 19 22 21 20 19 22 21 20 16 14 12 8 4 6 12 21 31 39 38
18 16 14 12 14 9 11 9 11 8 8 11 9 9 13 13 12 16 19 23 25 27 23 24 27 25 18 21 18 20 22 23 22 21 20 18 17 15 13 14 21 33 35 38
18 14 13 13 15 11 10 9 7 5 7 6 7 8 9 11 15 17 18 19 23 27 29 26 25 27 27 22 20 21 22 23 23 24 26 24 20 19 19 18 17 21 24 31
17 14 12 16 15 12 9 6 2 2 3 8 11 12 12 15 15 18 21 23 24 26 30 31 26 25 24 25 24 23 23 22 21 20 27 23 23 21 19 19 20 20 20 18
17 15 11 17 16 12 9 5 3 3 9 13 10 12 14 15 18 20 23 24 25 27 28 29 32 31 30 27 24 24 25 24 23 22 21 22 21 21 21 19 17 16 16 17
17 15 11 18 14 12 10 8 8 11 12 12 9 11 13 15 18 22 24 27 28 27 28 30 32 33 34 33 32 26 26 26 28 27 27 26 23 22 21 20 18 17 17 17
16 16 13 21 17 14 13 13 14 17 13 11 8 8 10 11 14 18 22 26 28 29 29 28 29 30 31 31 32 33 31 30 29 28 25 23 21 22 22 20 19 19 16 13
16 15 14 22 19 18 17 17 19 20 16 13 10 8 5 5 7 10 15 19 23 26 29 30 30 29 29 27 27 26 25 24 26 27 28 29 29 29 26 23 22 21 17 15
16 14 13 19 21 21 20 19 23 23 20 19 15 11 8 4 0 5 10 13 17 21 24 26 28 29 30 29 28 27 27 27 26 26 26 25 24 23 22 22 21 21 20 18
15 14 13 15 26 23 23 21 25 24 22 24 21 17 14 10 6 3 6 9 13 16 18 20 23 25 26 26 26 26 25 24 24 23 22 22 21 20 20 19 18 16 15 14
15 14 13 16 29 26 28 27 27 25 25 23 25 22 19 17 14 11 9 9 10 13 15 17 19 20 21 22 23 21 20 20 21 21 22 21 20 18 17 16 15 14 13 12
19 17 16 13 29 30 26 29 28 28 28 26 23 27 25 22 19 18 16 14 14 15 15 17 19 18 19 19 19 19 18 17 15 14 15 17 17 16 15 14 12 11 9 8
22 17 15 16 19 33 30 31 31 30 31 30 28 26 27 26 25 23 21 19 18 18 18 19 20 19 19 19 18 17 17 15 15 12 10 10 11 13 13 14 14 13 13 12
21 18 15 16 15 22 36 35 33 34 34 33 33 32 30 29 28 27 26 25 24 22 21 22 22 19 18 18 20 16 16 15 13 13 12 11 11 11 12 13 14 15 15 16
Wind_Direction
282 280 275 271 269 271 274 270 270 277 283 287 290 292 299 300 299 299 302 301 298 296 297 295 295 292 290 289 288 285 281 278 276 274 272 269 265 262 260 257 251 247 245 242
283 280 279 275 270 271 275 265 272 278 284 287 291 296 303 301 302 304 303 301 304 304 301 296 292 294 294 292 289 287 283 277 275 272 268 264 265 263 260 258 255 251 245 240
282 280 278 275 275 274 268 265 271 278 284 290 295 298 306 301 306 308 309 313 311 308 301 300 303 307 307 301 297 292 286 283 280 275 270 265 263 260 261 258 253 249 245 242
276 280 280 279 271 269 260 269 276 282 287 295 303 302 311 311 312 312 317 317 313 312 306 308 314 321 317 305 301 298 295 288 280 272 267 262 259 257 257 255 253 248 241 236
270 273 275 277 270 258 264 273 277 280 289 298 306 305 308 313 315 319 322 322 322 323 310 314 319 319 317 312 311 307 306 302 296 290 276 268 259 258 255 260 250 243 238 231
266 265 266 272 267 266 269 276 275 281 291 302 308 314 316 318 320 325 329 326 325 323 318 321 321 318 321 317 313 310 307 303 300 296 286 270 260 256 259 268 251 231 231 228
273 269 270 262 255 260 267 272 276 285 299 308 317 318 316 321 323 321 332 331 329 328 328 326 324 321 323 323 316 312 309 308 308 299 286 268 259 252 258 266 230 212 213 222
279 271 269 251 251 251 260 261 279 294 306 312 326 316 315 316 316 318 330 330 327 328 326 328 327 325 325 324 319 316 318 319 320 304 289 271 256 250 254 244 204 188 189 198
278 272 275 256 244 251 249 263 282 297 305 312 327 313 312 313 316 327 329 327 327 326 327 330 329 328 327 329 324 323 330 331 334 310 285 269 252 244 244 217 201 198 196 198
279 280 278 246 233 236 242 266 285 301 310 320 336 318 314 318 321 316 323 328 328 331 333 332 337 331 333 334 331 334 345 341 340 349 327 269 239 223 217 210 198 197 206 200
281 272 269 241 228 230 246 275 292 303 316 325 331 324 321 324 335 320 329 327 329 340 341 337 339 339 341 344 341 351 3 360 352 353 4 51 141 176 184 185 201 188 190 191
286 270 266 268 229 215 251 273 293 308 323 324 326 329 331 329 341 335 330 330 335 343 347 354 345 342 354 358 356 6 18 26 18 13 19 27 59 159 170 167 195 182 181 177
294 271 268 251 235 217 253 275 296 316 327 326 325 330 343 343 337 333 337 348 356 351 4 13 12 353 4 6 11 27 33 35 43 47 48 55 67 106 167 188 180 167 167 168
303 272 264 245 233 231 253 275 298 321 328 319 332 345 342 357 3 14 17 9 10 9 10 7 16 22 14 18 23 32 45 46 49 59 64 65 71 82 100 124 151 158 156 163
304 285 258 223 194 228 244 271 301 332 333 342 15 19 35 51 31 20 16 13 15 16 21 23 33 35 37 35 37 41 46 53 54 65 68 70 73 85 99 111 134 151 162 166
301 297 242 215 187 219 229 261 275 356 1 78 79 78 57 44 36 34 34 33 29 27 32 34 36 34 37 43 45 49 51 55 57 59 71 62 78 85 92 100 105 112 117 126
300 294 250 214 192 209 218 224 162 118 125 112 97 75 57 49 45 42 40 39 36 35 35 35 39 41 42 46 48 48 49 51 61 67 67 74 80 87 94 102 112 122 132 144
292 287 256 209 203 210 213 199 161 152 147 130 109 92 76 64 54 50 46 45 43 40 39 40 38 38 39 45 46 47 56 59 59 63 69 78 85 85 86 92 102 116 132 146
290 286 256 202 210 207 211 194 172 170 168 153 144 122 97 78 62 57 51 47 43 41 41 39 38 40 40 39 39 47 55 55 59 61 65 69 70 76 83 89 96 97 113 124
285 277 256 200 213 208 212 199 183 186 192 190 181 185 148 99 74 56 52 46 43 40 39 39 38 38 40 41 44 45 48 57 62 63 67 70 75 79 82 85 88 92 98 112
281 275 266 219 208 210 209 207 197 201 204 210 207 215 210 203 97 35 35 36 35 34 33 33 34 35 37 42 44 44 43 43 44 48 54 59 63 66 67 69 69 71 75 79
278 276 266 243 202 214 211 216 210 209 214 220 222 225 234 241 255 294 342 3 11 17 21 23 26 28 30 32 37 44 48 49 48 48 49 51 52 54 55 58 62 65 66 66
266 270 263 237 206 215 215 217 218 215 215 221 229 232 240 249 257 273 290 315 332 344 354 1 8 14 20 22 23 26 32 41 46 47 46 47 48 50 51 53 53 54 54 51
264 258 259 245 223 221 225 225 225 220 219 221 231 238 241 250 258 266 277 291 303 313 325 335 342 352 0 7 13 16 16 18 27 37 41 36 34 34 35 36 36 36 34 21
262 261 254 245 238 232 236 230 229 227 227 228 228 235 243 250 256 262 271 280 288 297 309 317 325 338 341 344 355 2 2 0 359 1 4 10 11 10 11 9 8 5 358 353
257 260 257 250 237 238 235 237 237 233 231 232 234 237 238 245 254 263 268 274 280 286 295 299 311 322 325 324 327 343 342 341 336 329 325 322 324 325 327 328 327 327 326 324
Height
5693 5692 5691 5689 5688 5687 5687 5686 5684 5682 5678 5675 5673 5670 5664 5658 5650 5644 5637 5629 5621 5615 5608 5602 5595 5587 5580 5571 5563 5556 5551 5544 5540 5536 5533 5532 5533 5533 5533 5536 5543 5550 5560 5571
5685 5684 5681 5680 5679 5678 5677 5676 5676 5673 5671 5668 5665 5661 5655 5646 5639 5632 5625 5617 5610 5603 5596 5588 5580 5573 5565 5555 5547 5539 5532 5526 5521 5518 5514 5513 5512 5512 5513 5514 5517 5523 5532 5542
5676 5674 5672 5670 5670 5669 5668 5667 5666 5664 5663 5659 5654 5652 5645 5636 5629 5620 5614 5608 5600 5592 5583 5575 5568 5560 5551 5542 5534 5525 5517 5511 5505 5501 5497 5495 5494 5493 5492 5493 5497 5502 5510 5516
5668 5665 5663 5661 5661 5659 5659 5659 5657 5656 5653 5650 5646 5640 5635 5625 5618 5612 5607 5600 5592 5583 5574 5566 5558 5549 5539 5530 5522 5513 5505 5498 5490 5484 5479 5476 5474 5475 5474 5475 5478 5481 5488 5496
5658 5656 5655 5653 5651 5650 5652 5651 5650 5648 5645 5642 5639 5632 5625 5618 5611 5606 5599 5593 5584 5576 5568 5560 5551 5541 5531 5520 5510 5500 5491 5483 5474 5467 5462 5459 5458 5458 5459 5458 5457 5460 5470 5479
5646 5645 5645 5645 5644 5644 5644 5643 5642 5640 5638 5636 5630 5623 5617 5610 5606 5600 5594 5586 5578 5569 5561 5551 5542 5532 5522 5512 5502 5491 5481 5471 5462 5453 5447 5444 5444 5445 5446 5442 5439 5446 5456 5467
5637 5636 5635 5635 5635 5637 5637 5636 5634 5633 5631 5627 5621 5615 5608 5603 5599 5594 5588 5581 5572 5562 5553 5543 5534 5525 5515 5505 5495 5484 5473 5462 5452 5443 5436 5433 5433 5435 5436 5433 5431 5440 5452 5460
5629 5628 5626 5627 5627 5629 5630 5630 5628 5624 5622 5619 5614 5608 5602 5599 5594 5590 5583 5575 5566 5557 5547 5538 5529 5520 5510 5500 5489 5478 5466 5454 5443 5435 5428 5425 5425 5426 5428 5428 5430 5437 5444 5452
5620 5619 5617 5617 5619 5622 5623 5624 5622 5620 5617 5612 5609 5602 5598 5594 5590 5585 5580 5571 5562 5553 5542 5532 5522 5514 5505 5496 5485 5474 5463 5451 5439 5430 5424 5421 5421 5422 5424 5425 5428 5435 5440 5450
5613 5611 5609 5610 5612 5615 5617 5618 5617 5615 5609 5604 5602 5595 5592 5589 5586 5582 5576 5567 5558 5549 5538 5527 5518 5509 5502 5493 5483 5473 5462 5451 5439 5428 5422 5420 5419 5420 5422 5424 5427 5431 5440 5450
5607 5607 5607 5606 5607 5609 5610 5611 5611 5609 5605 5599 5596 5593 5588 5585 5583 5578 5572 5564 5556 5547 5536 5524 5514 5507 5500 5492 5482 5473 5463 5453 5442 5433 5425 5421 5420 5422 5423 5424 5426 5431 5440 5451
5601 5600 5600 5602 5603 5604 5605 5606 5606 5603 5602 5596 5593 5590 5586 5583 5580 5575 5569 5562 5554 5545 5535 5524 5513 5506 5500 5493 5484 5474 5465 5456 5447 5438 5431 5425 5423 5424 5424 5426 5428 5433 5441 5451
5597 5596 5596 5598 5600 5601 5601 5602 5601 5599 5596 5593 5590 5588 5584 5581 5577 5573 5567 5560 5553 5544 5535 5526 5514 5506 5500 5493 5486 5477 5468 5460 5452 5445 5438 5433 5430 5428 5428 5429 5432 5437 5444 5453
5593 5592 5593 5594 5597 5599 5598 5598 5597 5596 5594 5592 5589 5586 5583 5580 5576 5572 5567 5561 5553 5545 5536 5528 5518 5509 5502 5496 5489 5481 5472 5465 5458 5452 5446 5443 5439 5438 5438 5439 5441 5445 5450 5458
5589 5588 5587 5588 5591 5594 5595 5594 5594 5593 5591 5590 5588 5585 5583 5581 5577 5573 5568 5561 5554 5547 5539 5530 5522 5514 5506 5499 5493 5487 5480 5471 5465 5460 5455 5452 5450 5449 5450 5451 5453 5457 5461 5467
5585 5584 5583 5583 5586 5589 5590 5591 5590 5590 5589 5588 5587 5586 5584 5581 5578 5574 5568 5562 5556 5550 5542 5535 5527 5519 5512 5505 5498 5492 5486 5479 5474 5471 5465 5463 5460 5459 5460 5461 5463 5467 5470 5476
5581 5580 5579 5581 5584 5585 5588 5588 5588 5589 5589 5588 5588 5586 5584 5582 5579 5575 5570 5565 5559 5553 5546 5540 5534 5526 5518 5511 5505 5500 5494 5488 5483 5479 5475 5472 5470 5469 5469 5470 5472 5476 5480 5485
5578 5576 5576 5578 5580 5583 5585 5585 5586 5587 5588 5587 5587 5586 5584 5583 5580 5577 5573 5568 5562 5557 5551 5545 5539 5532 5526 5519 5513 5507 5501 5496 5492 5487 5483 5481 5480 5480 5479 5479 5481 5483 5486 5490
5574 5573 5573 5574 5577 5580 5581 5582 5584 5585 5587 5585 5586 5585 5584 5582 5581 5578 5575 5570 5566 5561 5555 5551 5545 5539 5533 5527 5521 5516 5510 5505 5500 5496 5493 5491 5490 5489 5489 5490 5491 5492 5494 5497
5570 5569 5569 5570 5573 5575 5577 5579 5580 5582 5583 5583 5583 5583 5582 5582 5580 5579 5576 5572 5569 5564 5560 5554 5549 5545 5540 5535 5531 5526 5522 5516 5512 5508 5506 5503 5501 5500 5500 5499 5499 5500 5501 5503
5566 5565 5565 5565 5568 5570 5572 5575 5576 5578 5583 5580 5580 5581 5580 5579 5579 5578 5576 5573 5570 5567 5563 5559 5554 5549 5545 5541 5537 5533 5529 5525 5522 5518 5515 5512 5511 5510 5509 5508 5508 5508 5508 5509
5563 5561 5560 5561 5562 5566 5567 5570 5571 5572 5574 5576 5576 5577 5578 5577 5577 5576 5575 5573 5571 5568 5565 5561 5557 5553 5549 5545 5541 5538 5534 5531 5528 5525 5522 5520 5519 5518 5517 5516 5516 5516 5517 5517
5559 5557 5556 5556 5556 5558 5560 5562 5563 5566 5568 5570 5572 5574 5575 5574 5574 5573 5572 5571 5569 5568 5565 5562 5559 5556 5552 5549 5545 5542 5539 5536 5534 5531 5529 5527 5524 5523 5521 5521 5520 5519 5519 5519
5551 5550 5550 5551 5553 5552 5555 5557 5559 5561 5562 5564 5567 5568 5569 5570 5570 5570 5569 5568 5567 5566 5564 5561 5559 5557 5554 5550 5547 5544 5541 5538 5536 5535 5533 5531 5529 5527 5525 5523 5522 5521 5521 5520
5544 5544 5544 5544 5545 5546 5549 5549 5552 5555 5556 5558 5560 5562 5564 5564 5565 5565 5565 5565 5564 5563 5561 5559 5557 5555 5553 5550 5548 5545 5542 5539 5537 5535 5533 5531 5530 5528 5527 5525 5524 5522 5521 5520
5537 5538 5539 5539 5539 5539 5541 5544 5545 5547 5549 5552 5553 5554 5556 5558 5558 5559 5560 5560 5559 5558 5557 5556 5554 5552 5551 5548 5545 5543 5541 5538 5536 5533 5531 5530 5529 5527 5525 5524 5522 5521 5519 5517